Retour au catalogue

LUCY

ActifScienceVLEO
NORAD 49328·PAYLOAD·🇺🇸 United States

Lancé Oct 16, 2021 depuis Cape Canaveral Space Force Station

Loading…

Prochains Passages (prochaines 24 heures)

TLE

PériméSource: Space-Track

Époque: Oct 16, 2021, 09:47 UTC

1 49328U 21093A   21289.40775685  .00002371 -74891-5  00000-0 0  9993
2 49328  28.4700 357.4008 0105000 216.7000 268.5023 16.15960640    02

Suivez LUCY en temps réel avec AllMySat

Download on the App Store